QUAKESAT

Satellite information

Favourite Embed

Satellite Type and Status

PAYLOADIN ORBIT

Key statistics

Satellite QUAKESAT at a glance.

Uptime

8101

Days in orbit

Revolutions

≈ 14.2

Per day

Orbit

SSO

Sun Synchronous Orbit

Inclination

98.7

Latest

Satellite identification and parameters

Extended collection of information and parameters for QUAKESAT.

Object identification

Identified? True

Debris? False

Object name: QUAKESAT

International designator: 2003-031F

Object number (NORAD): 27845

Object ID (CCSDS): 27845

Country: UNITED STATES OF AMERICA (US)

Current information (Y/N): Y

RCS size: MEDIUM

Orbital parameters

Period: 101.082 minutes

Inclination: 98.6683 deg

SMA: 7188.006 km

Apoapsis: 815.576 km

Periapsis: 804.165 km

RAAN: 253.0923 deg

Eccentricy: 0.00079374

Argument of periapsis: 327.0759 deg

Mean anomaly: 32.9925 deg

Mean motion: 14.24590871 rev/day

Mean motion (dot): 0.00000966 rev/day2

B* drag term: 0.00043479122 1/REarth

Two-line elements (TLE)

Creation date: Sept. 2, 2025, 11:42 p.m.

Reference frame: TEME

Reference center: EARTH

Epoch: Sept. 2, 2025, 2:04 p.m. UTC

TLE line 0: 0 QUAKESAT

TLE line 1: 1 27845U 03031F 25245.58627522 .00000966 00000-0 43479-3 0 9999

TLE line 2: 2 27845 98.6683 253.0923 0007937 327.0759 32.9925 14.24590871150659

Live tracking on map

Real-time ground track for satellite QUAKESAT.

In-orbit conjunctions

A list of the most updated potential collisions computed for object QUAKESAT.

Target Orbit TCA Probability of collision Miss distance Type
FENGYUN 1C DEB SSO 2025-08-23 18:28:27 0.0002062148 580.0 (m) DEBRIS
CZ-6A DEB SSO 2025-06-19 11:40:35 0.0007849901 677.0 (m) DEBRIS
THOR BURNER 2 R/B SSO 2025-04-20 03:21:36 0.00278202 74.0 (m) ROCKET BODY
FENGYUN 1C DEB SSO 2025-04-05 07:49:51 0.0005543513 518.0 (m) DEBRIS
NOAA 16 DEB SSO 2024-10-20 12:10:28 0.0001472201 641.0 (m) DEBRIS

Associated space launch

MIMOSA (Micro Measurements Of Satellite Acceleration) is a microsatellite to measure atmospheric drag.

QUAKESAT was lifted into orbit during the mission ‘Rokot / Briz-KM | Mimosa’, on board a Rokot/Briz-KM space rocket.

The launch took place on June 30, 2003, 2:15 p.m. from 133/3 (133L).

For more information about the launch, click the button.

Launch to space Rokot / Briz-KM | Mimosa
Rokot / Briz-KM | Mimosa

Agency: N/A

Status: Launch Successful

Launch date: June 30, 2003, 2:15 p.m. UTC

Rocket: Rokot/Briz-KM

Launch pad: 133/3 (133L)

Location: Plesetsk Cosmodrome, Russian Federation

...

Latest news about this satellite

There are no fresh news available about this satellite. Check back as we update our databases every day.


Newsletter sign-up

Weekly statistics, charts and insights to help you stay on top of the space industry.